Flag Weather past 2 weeks in El Paso, Texas, U.S.A.

Now
60 °F

Passing clouds.


Feels Like: 60 °F
Forecast: 36 / 68 °F
Wind: No wind

Location: El Paso International Airport

Current Time: Nov 28, 2014 at 12:21:46 PM

Latest Report: Nov 28, 2014 at 11:51 AM


Visibility: 10 mi

Pressure: 30.10 "Hg

Humidity: 22%

Dew point: 21 °F

Location of El PasoLocation

Historic Weather in El Paso — Graph

°F

El Paso temperature yesterday

Maximum temperature yesterday: 66 °F (at 1:51 PM)
Minimum temperature yesterday: 34 °F (at 5:51 AM)
Average temperature yesterday: 50 °F

Past Weeks' High & Low Weather Summary

 TemperatureHumidityPressure
High69 °F (Nov 15, 1:51 PM)83% (Nov 16, 1:51 PM)30.42 "Hg (Nov 16, 1:51 PM)
Low27 °F (Nov 17, 6:51 AM)7% (Nov 24, 1:51 PM)29.66 "Hg (Nov 23, 2:51 PM)
Average49 °F35%30.06 "Hg
* Reported Nov 13 10:51 AM — Nov 28 10:51 AM, El Paso, Weather by CustomWeather, © 2014

Note: Actual official high and low records may vary slightly from our data, if they occured in-between our weather recording intervals... More about our weather records

Advertising

El Paso weather history for previous 24 hours

 ConditionsComfort  
Time TempWeatherWind HumidityBarometerVisibility
10:51 AM
Nov 28
58 °FPassing clouds.No wind25%30.15 "Hg10 mi
9:51 AM53 °FPassing clouds.3 mph32%30.17 "Hg10 mi
8:51 AM48 °FSunny.6 mph39%30.19 "Hg10 mi
7:51 AM42 °FSunny.5 mph47%30.19 "Hg10 mi
6:51 AM33 °FSunny.5 mph58%30.20 "Hg10 mi
5:51 AM38 °FClear.8 mph53%30.17 "Hg10 mi
4:51 AM38 °FClear.8 mph51%30.16 "Hg10 mi
3:51 AM39 °FClear.7 mph46%30.16 "Hg10 mi
2:51 AM38 °FClear.5 mph46%30.17 "Hg10 mi
1:51 AM41 °FPassing clouds.6 mph43%30.17 "Hg10 mi
12:51 AM45 °FClear.No wind38%30.17 "Hg10 mi
11:51 PM
Nov 27
45 °FClear.No wind38%30.19 "Hg10 mi
10:51 PM46 °FClear.No wind37%30.20 "Hg10 mi
9:51 PM48 °FClear.No wind34%30.21 "Hg10 mi
8:51 PM47 °FClear.7 mph34%30.22 "Hg10 mi
7:51 PM51 °FClear.No wind32%30.23 "Hg10 mi
6:51 PM54 °FClear.No wind30%30.24 "Hg10 mi
5:51 PM61 °FClear.No wind22%30.21 "Hg10 mi
4:51 PM66 °FSunny.No wind18%30.20 "Hg10 mi
3:51 PM66 °FSunny.3 mph18%30.21 "Hg10 mi
2:51 PM66 °FSunny.5 mph18%30.21 "Hg10 mi
1:51 PM66 °FSunny.No wind18%30.22 "Hg10 mi
12:51 PM63 °FSunny.No wind20%30.24 "Hg10 mi
Weather by CustomWeather, © 2014

See weather overviewHow to use our weather pages